[[{"header":{"parameterUnit":"m.s-1","parameterCategory":1,"la1":30.2991,"la2":30.254,"lo1":-89.0895,"lo2":-89.0444,"dy":0.0017,"dx":0.0017,"nx":28,"ny":28,"refTime":"2026-01-10T09:00:00:Z","depth":0,"parameterNumber":2,"parameterNumberName":"U-component_of_WINDS"},"data":[0,0,0,0,0,0,0,0,0,0,0,0,0,0,0,0,0,0,0,0,0,0,0,0,0,0,0,0,0,0,0,0,0,0,0,0,0,0,0,0,0,0,0,0,0,0,0,0,0,0,0,0,0,0,0,0,0,0,2.5836,2.5836,0,2.5828,2.5828,2.5828,2.5793,2.5793,2.5792,2.5791,2.5782,2.5782,2.5783,0,0,0,0,0,0,0,0,0,0,0,0,0,2.582,2.5821,2.5836,2.5836,2.5835,2.5828,2.5828,2.5828,2.5794,2.5793,2.5792,2.5791,2.5782,2.5782,2.5783,0,0,0,0,0,0,0,0,0,0,0,0,0,2.5821,2.5821,2.5836,2.5818,2.5816,2.5828,2.5828,2.5828,2.5794,2.5793,2.5791,2.579,2.5782,2.5782,2.5783,2.5812,0,0,2.5785,2.5786,0,0,0,0,0,0,0,0,2.5821,2.5822,2.582,2.5819,2.5817,2.581,2.5819,2.5822,2.5794,2.5802,2.5791,2.579,2.5792,2.5792,2.5793,2.5811,2.5811,2.5785,2.5786,2.5786,2.5786,0,0,0,0,0,0,0,2.5821,2.5822,2.5833,2.582,2.5818,2.581,2.5809,2.582,2.5804,2.5801,2.5799,2.5798,2.5791,2.5793,2.5793,2.5811,2.5785,2.5786,2.5787,2.5787,2.5854,2.5855,0,0,0,0,0,0,2.5824,2.5822,2.5833,2.5832,2.5816,2.5811,2.581,2.5814,2.5804,2.5801,2.5799,2.5797,2.5792,2.5792,2.5792,2.5826,2.5786,2.5787,2.5787,2.5852,2.5854,2.5856,0,0,0,0,0,0,2.5824,2.5825,2.5833,2.5827,2.5827,2.5813,2.5817,2.5814,2.5816,2.5802,2.5799,2.5804,2.5791,2.5791,2.5808,2.5825,2.5787,2.5788,2.5851,2.5853,2.5855,2.5893,0,0,0,0,0,0,2.5823,2.5825,2.5836,2.5827,2.5828,2.5849,2.5818,2.5815,2.5817,2.5814,2.5806,2.5803,2.579,2.5807,2.5808,2.5826,2.5789,2.5849,2.5852,2.5854,2.589,2.5896,2.5902,0,0,0,0,0,2.5823,2.5846,2.5837,2.5838,2.5841,2.585,2.585,2.5835,2.5819,2.5829,2.5821,2.5804,2.5823,2.5809,2.581,2.5828,2.5848,2.5851,2.5854,2.5888,2.5895,2.5901,0,0,0,0,0,0,2.5857,2.5845,2.5834,2.5855,2.5854,2.5844,2.5857,2.5843,2.5845,2.5842,2.5822,2.5821,2.584,2.5836,2.582,2.5856,2.5833,2.5836,2.5858,2.5865,2.587,2.5871,2.5789,0,0,0,0,0,2.5867,2.5875,2.5865,2.5885,2.5885,2.5871,2.5874,2.5863,2.5861,2.586,2.5852,2.5851,2.5856,2.586,2.5865,2.589,2.5888,2.5903,2.5909,2.5913,2.5916,2.593,2.5937,2.5865,2.5865,2.5865,0,0,2.5887,2.5882,2.5888,2.5891,2.5889,2.5898,2.5871,2.5881,2.5888,2.5861,2.5876,2.5871,2.5868,2.5889,2.5898,2.5886,2.5936,2.5917,2.5921,2.5921,2.5934,2.5941,2.5947,2.5867,2.5867,2.5867,0,0,2.5929,2.5926,2.5943,2.5942,2.5939,2.593,2.5934,2.5927,2.5923,2.5938,2.5918,2.5926,2.5937,2.5935,2.5936,2.5981,2.5964,2.5983,2.6011,2.6025,2.6031,2.6035,2.6052,2.6058,2.5986,2.5986,2.5986,0,2.5955,2.5968,2.5953,2.5966,2.5968,2.5945,2.5962,2.5962,2.596,2.5962,2.5949,2.5963,2.5959,2.598,2.5991,2.5992,2.5997,2.5983,2.6031,2.6036,2.604,2.6055,2.6061,2.5988,2.5988,2.5988,2.5987,0,2.6,2.601,2.6024,2.6025,2.6029,2.6043,2.6031,2.6036,2.6025,2.6018,2.6035,2.603,2.6033,2.6038,2.6026,2.6058,2.605,2.6035,2.6011,2.605,2.6063,2.6069,2.5991,2.599,2.599,2.5989,0,0,2.6061,2.6055,2.606,2.6061,2.6057,2.6064,2.6079,2.6083,2.6089,2.6089,2.6101,2.6112,2.6097,2.6098,2.6087,2.6099,2.6136,2.6082,2.6082,2.6092,2.617,2.6182,2.6189,2.6126,2.6127,2.6127,2.6171,0,2.6102,2.6126,2.6114,2.6139,2.6149,2.6129,2.6141,2.6141,2.6135,2.6142,2.6135,2.6143,2.6124,2.6124,2.6136,2.6129,2.6151,2.6126,2.6136,2.6137,2.6137,2.6196,2.6208,2.6249,2.6176,2.6177,2.6177,0,2.6152,2.6156,2.6183,2.6179,2.6182,2.6194,2.6198,2.6205,2.6204,2.6199,2.6201,2.6188,2.6202,2.6179,2.6199,2.6182,2.6186,2.6183,2.6184,2.6184,2.6159,2.6197,2.6261,2.6267,2.6186,2.6185,2.6184,0,2.6194,2.6206,2.6224,2.6225,2.6221,2.6229,2.6228,2.6226,2.623,2.6234,2.6236,2.6241,2.6244,2.6248,2.6237,2.6221,2.6258,2.6234,2.6254,2.6255,2.6262,2.6261,2.6327,2.6265,2.6265,2.6265,2.6265,0,2.624,2.6257,2.6243,2.6254,2.6273,2.6259,2.6279,2.6275,2.6274,2.6284,2.6267,2.6277,2.6261,2.627,2.6261,2.6279,2.628,2.6276,2.6273,2.6277,2.6278,2.6279,2.6276,2.6267,2.6266,2.6266,2.6266,0,2.6289,2.628,2.6299,2.6294,2.6294,2.6308,2.6304,2.6314,2.6308,2.6321,2.6323,2.6314,2.6323,2.6312,2.632,2.6314,2.6339,2.6332,2.6339,2.6337,2.6358,2.6356,2.6426,2.6434,2.6368,2.6368,2.6369,0,2.6319,2.6332,2.6329,2.6335,2.6335,2.6345,2.6349,2.6337,2.6342,2.6344,2.6354,2.6362,2.6368,2.6384,2.6377,2.6384,2.6377,2.6401,2.6377,2.6381,2.6377,2.6376,2.6377,2.6405,2.6406,2.6407,2.6407,0,2.6372,2.6368,2.6375,2.6382,2.6388,2.6392,2.6395,2.6401,2.6388,2.6396,2.6405,2.641,2.6419,2.6427,2.6433,2.6431,2.6417,2.6415,2.642,2.6424,2.6427,2.6426,2.6352,2.6413,2.6413,2.6412,2.6412,2.6412,2.6413,2.6424,2.6424,2.6433,2.6435,2.6439,2.6448,2.6444,2.6452,2.6459,2.6452,2.6464,2.6464,2.647,2.647,2.6479,2.6469,2.6476,2.6478,2.648,2.6483,2.6427,2.648,2.648,2.648,2.648,2.648,0,2.6465,2.6465,2.6474,2.6479,2.6487,2.6475,2.6478,2.6485,2.6496,2.6498,2.6505,2.6516,2.6525,2.652,2.6528,2.6536,2.653,2.6538,2.6537,2.6537,2.6492,2.6487,2.6543,2.6543,2.6543,2.6543,2.6543,2.6543,2.6493,2.6512,2.6508,2.6527,2.6527,2.6539,2.6542,2.6546,2.6548,2.6562,2.6569,2.6567,2.6566,2.6573,2.6581,2.6579,2.6583,2.6593,2.659,2.6547,2.654,2.6534,2.653,2.6594,2.6594,2.6634,2.6635,2.6635]},{"header":{"parameterUnit":"m.s-1","parameterCategory":1,"la1":30.2991,"la2":30.254,"lo1":-89.0895,"lo2":-89.0444,"dy":0.0017,"dx":0.0017,"nx":28,"ny":28,"refTime":"2026-01-10T09:00:00:Z","depth":0,"parameterNumber":3,"parameterNumberName":"V-component_of_WINDS"},"data":[0,0,0,0,0,0,0,0,0,0,0,0,0,0,0,0,0,0,0,0,0,0,0,0,0,0,0,0,0,0,0,0,0,0,0,0,0,0,0,0,0,0,0,0,0,0,0,0,0,0,0,0,0,0,0,0,0,0,-7.7398,-7.74,0,-7.7573,-7.7574,-7.7576,-7.7535,-7.7532,-7.7529,-7.7526,-7.7699,-7.7706,-7.7714,0,0,0,0,0,0,0,0,0,0,0,0,0,-7.7026,-7.7033,-7.7398,-7.74,-7.7402,-7.7572,-7.7575,-7.7577,-7.7536,-7.7532,-7.7528,-7.7524,-7.7696,-7.7705,-7.7715,0,0,0,0,0,0,0,0,0,0,0,0,0,-7.7192,-7.7035,-7.7397,-7.7402,-7.7405,-7.7572,-7.7575,-7.7578,-7.7537,-7.7532,-7.7527,-7.7522,-7.7693,-7.7704,-7.7716,-7.7887,0,0,-7.7751,-7.7756,0,0,0,0,0,0,0,0,-7.7183,-7.7206,-7.74,-7.7402,-7.7405,-7.7527,-7.7507,-7.7681,-7.7538,-7.7487,-7.7526,-7.752,-7.7645,-7.766,-7.7704,-7.7895,-7.7903,-7.7752,-7.7759,-7.7764,-7.7767,0,0,0,0,0,0,0,-7.7172,-7.7198,-7.7467,-7.7402,-7.7406,-7.7395,-7.7413,-7.754,-7.7591,-7.7491,-7.7488,-7.751,-7.7646,-7.7693,-7.7708,-7.7905,-7.7752,-7.7762,-7.7769,-7.7774,-7.8248,-7.8253,0,0,0,0,0,0,-7.7158,-7.7189,-7.7461,-7.7472,-7.728,-7.7406,-7.7426,-7.7493,-7.759,-7.76,-7.7514,-7.7507,-7.7676,-7.7694,-7.7714,-7.7922,-7.7764,-7.7775,-7.7782,-7.8242,-7.8249,-7.8255,0,0,0,0,0,0,-7.715,-7.7183,-7.7454,-7.733,-7.7364,-7.7417,-7.7493,-7.7499,-7.7546,-7.7608,-7.7616,-7.7553,-7.7672,-7.7697,-7.7845,-7.7928,-7.778,-7.7791,-7.8235,-7.8244,-7.8252,-7.834,0,0,0,0,0,0,-7.714,-7.718,-7.7247,-7.7332,-7.7371,-7.7584,-7.7498,-7.7506,-7.7567,-7.756,-7.7646,-7.7656,-7.767,-7.7828,-7.7857,-7.7941,-7.78,-7.8228,-7.8239,-7.8249,-7.833,-7.8351,-7.8368,0,0,0,0,0,-7.7127,-7.7263,-7.725,-7.7283,-7.7455,-7.7589,-7.7611,-7.7627,-7.7574,-7.7641,-7.768,-7.7653,-7.7914,-7.7844,-7.7875,-7.7964,-7.8223,-7.8236,-7.8249,-7.8322,-7.8347,-7.8368,0,0,0,0,0,0,-7.7183,-7.7274,-7.7261,-7.7429,-7.7502,-7.7582,-7.7666,-7.7652,-7.774,-7.773,-7.7744,-7.7764,-7.7915,-7.7954,-7.7874,-7.8136,-7.8061,-7.8081,-7.8105,-7.813,-7.8148,-7.8136,-7.7809,0,0,0,0,0,-7.7216,-7.7318,-7.7391,-7.7532,-7.757,-7.7612,-7.7671,-7.7677,-7.7753,-7.7783,-7.7833,-7.7906,-7.8005,-7.8069,-7.8163,-7.8335,-7.8354,-7.8412,-7.8431,-7.8447,-7.8464,-7.856,-7.8587,-7.8297,-7.8297,-7.8297,0,0,-7.7282,-7.7345,-7.7408,-7.7545,-7.7603,-7.7708,-7.7638,-7.7752,-7.7831,-7.7799,-7.7943,-7.7983,-7.8065,-7.8227,-7.83,-7.8264,-7.8548,-7.8463,-7.8475,-7.8484,-7.8576,-7.8603,-7.8627,-7.8306,-7.8304,-7.8303,0,0,-7.7459,-7.7516,-7.7642,-7.7701,-7.779,-7.7818,-7.7848,-7.7931,-7.7957,-7.8102,-7.8082,-7.8174,-7.8343,-7.8404,-7.8456,-7.8659,-7.8638,-7.8689,-7.8788,-7.8882,-7.8905,-7.8925,-7.8999,-7.9025,-7.8705,-7.8706,-7.8706,0,-7.7531,-7.7691,-7.7707,-7.7825,-7.7886,-7.7865,-7.7992,-7.8048,-7.8162,-7.8205,-7.8163,-7.8377,-7.843,-7.8607,-7.8657,-7.87,-7.8735,-7.8679,-7.89,-7.8921,-7.894,-7.9011,-7.9038,-7.8711,-7.8711,-7.871,-7.871,0,-7.7775,-7.7887,-7.7977,-7.8091,-7.8162,-7.8283,-7.8317,-7.8387,-7.8388,-7.842,-7.8568,-7.8632,-7.874,-7.8782,-7.8782,-7.896,-7.8935,-7.8897,-7.8821,-7.8973,-7.904,-7.9067,-7.872,-7.8718,-7.8716,-7.8715,0,0,-7.7991,-7.8115,-7.8148,-7.8201,-7.8298,-7.8384,-7.8504,-7.8612,-7.8673,-7.8752,-7.8854,-7.8999,-7.8966,-7.9025,-7.9032,-7.9114,-7.9273,-7.9066,-7.9069,-7.9104,-7.9474,-7.9503,-7.9534,-7.926,-7.9265,-7.9269,-7.9468,0,-7.8178,-7.8393,-7.8412,-7.8605,-7.8708,-7.8691,-7.8796,-7.8867,-7.8901,-7.8993,-7.9028,-7.9132,-7.9079,-7.9116,-7.9196,-7.9237,-7.9348,-7.9222,-7.9354,-7.9359,-7.9335,-7.9569,-7.9599,-7.9784,-7.9494,-7.9498,-7.9501,0,-7.8424,-7.8515,-7.8718,-7.8804,-7.8848,-7.8943,-7.9044,-7.9133,-7.9213,-7.9231,-7.93,-7.9297,-7.942,-7.934,-7.9511,-7.9426,-7.9481,-7.9509,-7.9517,-7.953,-7.944,-7.9589,-7.9843,-7.9871,-7.9542,-7.9539,-7.9536,0,-7.8563,-7.8735,-7.8881,-7.8926,-7.9029,-7.9096,-7.9142,-7.9217,-7.9282,-7.937,-7.9412,-7.9512,-7.9568,-7.9645,-7.9669,-7.9608,-7.984,-7.9761,-7.9859,-7.9858,-7.9908,-7.9905,-8.0175,-7.9942,-7.9942,-7.9941,-7.9941,0,-7.877,-7.8896,-7.8945,-7.9034,-7.9175,-7.9195,-7.9334,-7.9375,-7.9443,-7.954,-7.953,-7.962,-7.9646,-7.9741,-7.976,-7.99,-7.9924,-7.9942,-7.9946,-7.9944,-7.9942,-7.9981,-7.9969,-7.9948,-7.9947,-7.9945,-7.9944,0,-7.8949,-7.8987,-7.9144,-7.923,-7.9255,-7.9355,-7.9428,-7.9514,-7.9546,-7.9669,-7.9699,-7.975,-7.9861,-7.9893,-8.0025,-8.0038,-8.0203,-8.0194,-8.0177,-8.0177,-8.0274,-8.0265,-8.0579,-8.0622,-8.036,-8.0362,-8.0364,0,-7.9079,-7.9176,-7.9274,-7.9339,-7.9389,-7.9493,-7.956,-7.9584,-7.9654,-7.9754,-7.9828,-7.9939,-8.0029,-8.0208,-8.0256,-8.0358,-8.0352,-8.0456,-8.0367,-8.0363,-8.0356,-8.035,-8.0361,-8.0472,-8.0475,-8.0477,-8.0479,0,-7.9307,-7.9322,-7.9419,-7.9525,-7.9605,-7.9689,-7.9769,-7.9822,-7.9858,-7.9936,-8.0052,-8.0122,-8.026,-8.0371,-8.0475,-8.052,-8.0507,-8.0507,-8.0535,-8.0534,-8.0521,-8.0531,-8.0224,-8.0499,-8.0497,-8.0496,-8.0495,-8.0494,-7.9466,-7.9553,-7.9636,-7.9746,-7.9809,-7.9885,-7.9971,-8.0016,-8.0113,-8.0229,-8.0237,-8.0363,-8.0441,-8.058,-8.0632,-8.073,-8.0699,-8.0739,-8.075,-8.076,-8.0769,-8.0505,-8.0748,-8.0748,-8.0747,-8.0747,-8.0747,0,-7.9695,-7.9748,-7.9849,-7.9963,-8.005,-8.0031,-8.012,-8.0193,-8.0304,-8.038,-8.0471,-8.0604,-8.0712,-8.0769,-8.0877,-8.0944,-8.0941,-8.0971,-8.0967,-8.0978,-8.0789,-8.0755,-8.0973,-8.0973,-8.0973,-8.0973,-8.0973,-8.0972,-7.9824,-7.997,-7.9995,-8.0172,-8.0224,-8.035,-8.0402,-8.0472,-8.0533,-8.0684,-8.0774,-8.0812,-8.0881,-8.0993,-8.1091,-8.1105,-8.1146,-8.1181,-8.1191,-8.1014,-8.0991,-8.0969,-8.0937,-8.1189,-8.1189,-8.1372,-8.1374,-8.1375]}]]